Hourly Data Report for June 30, 2017

BORDEN AWOS
ONTARIO

44°16'20.000" N
79°54'42.000" W
222.50 m
611B002
71534
YBN

Download Data

Hourly Data (June 2017)
Hourly Data Report for June 30, 2017
TIME
LST
Temp Definition
°C
Dew Point Definition
°C
Rel Hum Definition
%
Precip. Amount Definition
mm

Wind Dir Definition
10's deg

Wind Spd Definition
km/h
Visibility Definition
km
Stn Press Definition
kPa
Hmdx Definition


Wind Chill Definition


Weather Definition


00:00 17.2 17.2 100   23 6 0.5 98.33     LegendNANA
01:00 17.5 17.5 100     0 3.1 98.33     LegendNANA
02:00 18.7 18.7 100   21 7 11.3 98.34     LegendNANA
03:00 18.3 18.3 100   21 6 5.6 98.30     LegendNANA
04:00 18.0 18.0 100     0 5.6 98.28     LegendNANA
05:00 19.1 19.0 99   21 6 6.4 98.32     Rain
06:00
07:00 19.5 19.5 100   15 11 11.3 98.34     Rain
08:00 19.8 19.4 98   17 17 14.5 98.36     LegendNANA
09:00
10:00 21.2 20.4 95   20 7 14.5 98.36 29   LegendNANA
11:00 23.3 20.6 85   23 20 14.5 98.39 31   LegendNANA
12:00 26.0 20.3 71   23 24 14.5 98.38 34   LegendNANA
13:00 28.3 20.2 62   23 19 14.5 98.31 36   LegendNANA
14:00 28.2 18.4 55   24 26 14.5 98.31 35   LegendNANA
15:00 28.2 17.7 53   24 24 14.5 98.28 34   LegendNANA
16:00 28.6 18.0 53   24 17 14.5 98.28 35   LegendNANA
17:00 27.5 17.6 55   24 17 14.5 98.31 33   LegendNANA
18:00 25.6 18.3 64   24 13 14.5 98.37 32   LegendNANA
19:00 24.4 18.9 71   21 7 14.5 98.40 31   LegendNANA
20:00 22.4 19.7 85   18 6 14.5 98.37 30   LegendNANA
21:00 21.9 19.0 84   19 9 14.5 98.38 29   LegendNANA
22:00 21.9 19.0 84   18 6 14.5 98.36 29   LegendNANA
23:00 22.0 19.9 88   18 11 14.5 98.31 29   Rain

Notes on Data Quality.

Legend

  • E = Estimated
  • M = Missing
  • NA = Not Available*
  • [empty] = Indicates an unobserved value
Date modified: